User: anonymous   Login
Location: Sungai Jaoh
(2.9167°N, 113.9167°E)
Time: 08:23:40
(UTC+00:00)
Language:

FENGYUN 1C DEB - Orbit

View from above orbital plane
View from above orbital plane
View from above satellite
View from above satellite

Ground track
Ground track

The orbit data is extracted from the following two-line orbital elements,

1 30771U 99025AUH 21171.36039133  .00000734  00000-0  37773-3 0  9997
2 30771  98.8378 104.0390 0034191   1.9214 358.2086 14.18040451737338
Epoch (UTC): 20 June 2021 08:38:57
Eccentricity: 0.0034191
inclination: 98.8378°
perigee height: 807 km
apogee height: 856 km
right ascension of ascending node: 104.0390°
argument of perigee: 1.9214°
revolutions per day: 14.18040451
mean anomaly at epoch: 358.2086°
orbit number at epoch: 73733

The dashed part of the orbit path shows where the satellite is in the earth's shadow,  

DLR